CSH9180 ZSPD-ZYCC

Flight info

Callsign CSH9180
Flight time N/A
Altitude 31100
Route ODU81D/17L ODULO B221 XDX DCT URBAD W172 IGDEG W173 NIXEP W8 DOBGA W202 UDETI A588 LEMOT
Aircraft B738/M-SDE2E3FGHIRWXY/LB1

Departure

Time 2026-04-30 14:19
Airport Shanghai Pudong International Airport (ZSPD)

Arrival

Time N/A
Airport Changchun Longjia International Airport (ZYCC)
Time Latitude Longitude Altitude Speed Heading
2026-04-30 14:19 30.99538 121.84366 3008 ft 267 kts 165°
2026-04-30 14:19 30.97783 121.85090 3021 ft 269 kts 159°
2026-04-30 14:19 30.96036 121.85932 3447 ft 274 kts 158°
2026-04-30 14:20 30.94265 121.86785 4148 ft 278 kts 158°
2026-04-30 14:20 30.92460 121.87631 4819 ft 282 kts 160°
2026-04-30 14:20 30.88658 121.89029 6111 ft 292 kts 163°
2026-04-30 14:21 30.86700 121.89730 6748 ft 296 kts 163°
2026-04-30 14:21 30.81375 121.93584 8755 ft 311 kts 111°
2026-04-30 14:22 30.80988 121.96040 9340 ft 312 kts 82°
2026-04-30 14:22 30.82135 122.00871 10371 ft 326 kts 65°
2026-04-30 14:22 30.82908 122.03451 10537 ft 348 kts 66°
2026-04-30 14:23 30.83977 122.07159 10750 ft 376 kts 67°
2026-04-30 14:23 30.86019 122.11759 11461 ft 376 kts 38°
2026-04-30 14:24 30.90497 122.14212 12902 ft 350 kts
2026-04-30 14:24 30.92906 122.14200 13583 ft 342 kts 345°
2026-04-30 14:25 30.97417 122.12615 14986 ft 340 kts 335°
2026-04-30 14:25 31.01932 122.10865 16279 ft 347 kts 335°
2026-04-30 14:26 31.06554 122.09135 17562 ft 352 kts 334°
2026-04-30 14:26 31.08901 122.08261 18174 ft 355 kts 334°
2026-04-30 14:26 31.13645 122.06488 19292 ft 359 kts 335°
2026-04-30 14:27 31.16030 122.05601 19942 ft 359 kts 335°
2026-04-30 14:27 31.18428 122.04710 20484 ft 362 kts 335°
2026-04-30 14:27 31.20841 122.03811 20977 ft 365 kts 335°
2026-04-30 14:28 31.25687 122.02001 21962 ft 370 kts 335°
2026-04-30 14:28 31.28150 122.01080 22449 ft 373 kts 334°
2026-04-30 14:28 31.30632 122.00152 22914 ft 376 kts 334°
2026-04-30 14:28 31.33152 121.99215 23376 ft 379 kts 336°
2026-04-30 14:29 31.38649 121.99328 24148 ft 423 kts
2026-04-30 14:29 31.43076 122.02202 24824 ft 462 kts 34°
2026-04-30 14:30 31.50302 122.11897 25714 ft 487 kts 42°
2026-04-30 14:31 31.53897 122.18882 26312 ft 508 kts 55°
2026-04-30 14:31 31.57270 122.26190 27017 ft 506 kts 48°
2026-04-30 14:31 31.59550 122.29143 27659 ft 474 kts 29°
2026-04-30 14:32 31.65088 122.32310 28843 ft 430 kts
2026-04-30 14:32 31.68009 122.32767 29185 ft 418 kts 353°
2026-04-30 14:32 31.70883 122.32658 29537 ft 408 kts 343°
2026-04-30 14:33 31.73597 122.31908 29986 ft 393 kts 332°
2026-04-30 14:33 31.77762 122.29865 30597 ft 390 kts 330°
2026-04-30 14:33 31.80281 122.28623 30879 ft 393 kts 330°
2026-04-30 14:34 31.82811 122.27399 31180 ft 394 kts 331°
2026-04-30 14:34 31.85382 122.26205 31186 ft 399 kts 332°
2026-04-30 14:34 31.90567 122.23882 31202 ft 396 kts 332°
2026-04-30 14:35 31.98231 122.20453 31211 ft 392 kts 332°
2026-04-30 14:36 32.03299 122.18163 31213 ft 393 kts 332°
2026-04-30 14:36 32.08407 122.15848 31207 ft 394 kts 332°
2026-04-30 14:37 32.13528 122.13525 31198 ft 394 kts 332°
2026-04-30 14:37 32.18656 122.11196 31196 ft 394 kts 332°
2026-04-30 14:38 32.23776 122.08867 31197 ft 394 kts 332°
2026-04-30 14:38 32.28888 122.06537 31192 ft 394 kts 332°
2026-04-30 14:39 32.32394 122.04939 31184 ft 392 kts 332°
2026-04-30 14:39 32.37457 122.02632 31204 ft 391 kts 333°
2026-04-30 14:40 32.45021 121.99178 31189 ft 386 kts 333°
2026-04-30 14:40 32.50028 121.96888 31191 ft 384 kts 333°
2026-04-30 14:41 32.55004 121.94607 31191 ft 383 kts 333°
2026-04-30 14:41 32.59932 121.92345 31234 ft 382 kts 333°
2026-04-30 14:42 32.64902 121.90055 31199 ft 383 kts 333°
2026-04-30 14:42 32.69879 121.87770 31192 ft 384 kts 333°
2026-04-30 14:43 32.74862 121.85479 31187 ft 384 kts 333°
2026-04-30 14:43 32.79857 121.83177 31188 ft 384 kts 333°
2026-04-30 14:44 32.84855 121.80870 31180 ft 385 kts 333°
2026-04-30 14:44 32.89843 121.78563 31186 ft 385 kts 334°
2026-04-30 14:45 32.94796 121.76273 31177 ft 384 kts 334°
2026-04-30 14:45 32.99767 121.73973 31178 ft 383 kts 334°
2026-04-30 14:46 33.04718 121.71677 31176 ft 382 kts 334°
2026-04-30 14:46 33.09659 121.69383 31172 ft 381 kts 334°
2026-04-30 14:47 33.14594 121.67091 31180 ft 381 kts 334°
2026-04-30 14:47 33.19528 121.64792 31179 ft 380 kts 334°
2026-04-30 14:48 33.24455 121.62496 31172 ft 380 kts 334°
2026-04-30 14:48 33.29342 121.60088 31169 ft 379 kts 332°
2026-04-30 14:49 33.34173 121.57567 31169 ft 379 kts 332°
2026-04-30 14:49 33.39010 121.55050 31202 ft 379 kts 333°
2026-04-30 14:50 33.46264 121.51299 31149 ft 381 kts 333°
2026-04-30 14:51 33.53553 121.47525 31165 ft 381 kts 333°
2026-04-30 14:52 33.60856 121.43739 31162 ft 381 kts 333°
2026-04-30 14:52 33.68165 121.39959 31173 ft 382 kts 334°
2026-04-30 14:53 33.75572 121.36460 31155 ft 383 kts 335°
2026-04-30 14:54 33.85518 121.31796 31151 ft 384 kts 335°
2026-04-30 14:55 33.92982 121.28260 31163 ft 384 kts 336°
2026-04-30 14:56 34.02852 121.23563 31131 ft 383 kts 336°
2026-04-30 14:57 34.10281 121.20025 31151 ft 382 kts 336°
2026-04-30 14:58 34.20156 121.15313 31155 ft 381 kts 337°
2026-04-30 14:58 34.27517 121.11789 31141 ft 380 kts 337°
2026-04-30 15:00 34.39792 121.05898 31136 ft 379 kts 337°
2026-04-30 15:01 34.49554 121.01207 31140 ft 378 kts 338°
2026-04-30 15:01 34.56787 120.97715 31132 ft 378 kts 338°
2026-04-30 15:02 34.61672 120.95354 31099 ft 378 kts 338°
2026-04-30 15:03 34.73921 120.89424 31136 ft 388 kts 338°
2026-04-30 15:04 34.83279 120.84882 31129 ft 397 kts 338°
2026-04-30 15:06 34.96114 120.78634 31126 ft 395 kts 338°
2026-04-30 15:07 35.06247 120.73684 31111 ft 391 kts 338°
2026-04-30 15:08 35.16322 120.68754 31111 ft 388 kts 338°
2026-04-30 15:09 35.28858 120.62689 31112 ft 388 kts 339°
2026-04-30 15:10 35.38922 120.57803 31104 ft 389 kts 339°
2026-04-30 15:11 35.54056 120.50480 31102 ft 391 kts 339°
2026-04-30 15:13 35.66706 120.44292 31097 ft 391 kts 339°
2026-04-30 15:14 35.84370 120.35621 31094 ft 390 kts 339°
2026-04-30 15:16 35.97344 120.32306 31095 ft 395 kts 11°
2026-04-30 15:17 36.06297 120.40534 31132 ft 423 kts 41°
2026-04-30 15:18 36.18205 120.48591 31092 ft 390 kts 360°
2026-04-30 15:19 36.26314 120.48944 31078 ft 390 kts